GEFSMW_con_cape1000_084.txt.gz
Probability
58 68 65 58 58 68 61 61 61 65 68 58 42 32 19 13 0 0 0 0 0 0 0 0 0 0 0 0 0 3 0 0 0 0 0 0 0 0 0 0 0 0 3
48 55 61 55 61 61 58 61 68 65 65 58 52 39 26 6 3 0 6 3 0 0 0 0 0 0 0 0 0 0 0 0 0 0 0 0 0 0 0 0 0 0 0
42 55 48 48 55 65 55 42 61 55 61 55 42 29 26 13 6 6 16 0 0 0 0 0 0 0 0 0 0 0 0 0 0 0 0 0 0 0 0 0 0 0 0
35 48 55 48 52 52 39 42 58 58 61 58 42 26 16 10 13 13 6 10 0 0 0 0 0 0 0 0 0 0 0 0 0 0 0 0 0 0 0 0 0 0 0
32 39 55 58 52 39 35 45 55 58 61 58 55 58 19 19 10 10 19 10 3 3 0 0 0 0 0 0 0 0 0 0 0 0 0 0 0 0 0 0 0 0 0
29 45 48 52 52 48 35 35 52 61 65 68 55 71 52 35 19 29 16 6 3 3 0 0 3 0 0 0 0 0 0 0 0 0 0 0 0 0 0 0 0 0 0
35 48 48 55 58 48 55 48 52 68 71 65 58 71 74 68 52 19 13 3 3 3 3 0 3 0 0 0 0 0 0 0 0 0 0 0 0 0 0 0 0 0 0
26 45 45 52 58 52 58 55 58 71 74 68 74 74 77 52 19 29 6 3 3 3 0 3 3 3 0 0 0 0 0 0 0 0 0 0 0 0 0 0 0 0 0
19 26 39 48 52 52 58 61 77 81 81 77 81 77 74 52 23 26 19 6 3 3 3 3 3 3 3 0 0 0 0 0 0 0 0 0 0 0 0 0 0 0 0
19 19 26 35 52 58 68 74 81 87 84 81 81 71 71 61 42 29 19 6 6 3 3 3 3 3 3 0 0 0 0 0 0 0 0 0 0 0 0 0 0 0 0
16 23 32 39 48 65 74 81 84 94 94 84 81 77 71 58 52 32 23 16 13 10 6 3 3 3 0 0 0 0 0 0 0 0 0 0 0 0 0 0 0 0 0
16 19 29 45 52 58 68 94 94 97 94 90 87 77 71 71 58 39 32 19 19 10 10 3 3 0 0 0 0 0 0 0 0 0 0 0 0 0 0 0 0 0 0
32 35 35 55 65 65 71 77 94 94 90 94 94 84 74 71 61 42 32 26 23 13 10 6 3 0 0 0 0 0 0 0 0 0 0 0 0 0 0 0 0 0 0
42 52 61 74 74 81 87 87 81 81 81 94 94 90 77 77 65 55 35 29 26 16 13 10 3 0 0 0 0 0 0 0 0 0 0 0 0 0 0 0 0 0 0
48 65 74 90 90 90 97 90 81 87 94 97 90 90 84 77 61 55 45 32 23 13 13 10 6 3 0 0 0 0 0 0 0 0 0 0 0 0 0 0 0 0 0
55 48 68 81 90 90 87 90 81 90 97 94 94 90 77 77 65 48 42 32 23 13 13 10 10 6 3 0 0 0 0 0 0 0 0 0 0 0 0 0 0 0 0
42 52 58 68 81 81 81 84 94 90 87 90 90 77 68 58 55 42 39 32 26 16 19 10 10 10 6 0 0 0 0 0 0 3 6 0 0 0 0 0 0 0 0
23 26 32 45 55 52 58 68 68 74 61 68 68 65 55 39 32 29 23 29 23 16 23 16 10 16 3 0 0 0 0 0 0 0 6 10 0 0 0 0 0 0 0
26 19 19 19 39 45 45 45 52 61 58 61 65 52 42 39 35 32 26 23 23 26 16 13 10 13 13 0 0 0 0 0 0 0 0 0 0 0 0 0 0 0 0
16 13 13 10 16 29 39 48 45 42 32 32 32 29 26 29 29 26 29 26 29 19 6 3 6 6 13 0 0 0 0 0 3 6 6 0 0 0 0 0 0 0 0
13 13 16 13 13 10 13 16 16 13 13 13 10 16 13 13 13 16 19 19 6 6 6 10 10 10 6 0 0 0 0 0 0 0 0 3 0 0 0 0 0 0 0
6 6 10 6 6 10 6 6 3 0 0 0 0 0 0 0 0 10 13 6 6 6 6 6 6 3 3 0 0 0 0 0 0 0 3 6 0 0 0 0 0 0 0
3 3 0 0 0 3 3 0 0 0 0 0 0 0 0 0 0 0 0 0 0 0 0 0 0 0 3 0 0 0 0 0 0 0 0 0 0 0 0 0 0 0 0
0 0 0 0 0 0 0 0 0 0 0 0 0 0 0 0 0 0 0 0 0 0 0 0 3 3 3 3 0 0 0 0 0 0 0 0 0 0 0 0 0 0 0
0 0 0 0 0 0 0 0 0 0 0 0 0 0 0 0 0 0 0 3 3 3 0 3 0 0 0 0 0 0 0 3 3 0 0 0 0 0 0 0 0 0 0
0 0 0 0 0 0 0 0 0 0 0 0 0 0 0 0 0 0 0 0 0 0 0 0 0 0 0 0 0 0 0 0 0 0 0 0 0 0 0 0 0 0 3

GEFSMW_con_cape1000_090.txt.gz
Probability
61 68 68 68 71 81 87 87 84 84 84 84 74 68 58 45 42 29 23 13 6 3 0 0 3 3 3 3 3 6 6 6 6 6 0 3 3 10 10 3 6 10 23
61 68 68 71 68 84 87 87 87 87 81 81 68 65 71 65 55 42 42 16 10 6 0 3 6 3 3 3 3 3 3 3 3 3 0 0 3 6 0 6 6 0 16
55 58 58 58 58 84 84 71 84 81 74 61 58 55 68 65 52 52 45 29 13 6 6 3 3 3 6 3 3 3 3 0 0 3 0 0 0 3 3 0 3 3 6
48 58 55 58 61 71 77 84 77 71 74 61 58 52 48 52 65 71 74 48 29 10 10 3 3 3 0 3 0 0 0 3 3 0 0 0 0 0 0 0 0 0 0
45 52 52 58 55 71 68 61 61 68 74 58 65 68 58 71 71 68 74 65 42 16 6 3 3 6 3 0 0 0 0 0 0 0 0 0 0 0 0 0 0 0 0
42 52 61 65 71 65 65 58 61 65 77 61 68 71 71 77 71 68 71 68 58 35 13 3 6 6 3 0 0 0 0 0 0 0 0 0 0 0 0 0 0 0 0
39 52 58 68 71 68 61 58 58 68 65 61 71 74 81 81 84 77 77 71 45 32 48 3 29 3 3 0 0 0 0 0 0 0 0 0 0 0 0 0 0 0 0
32 52 58 65 68 61 55 58 71 68 68 74 77 87 87 84 81 87 81 71 68 42 42 39 32 6 6 0 3 0 0 0 0 0 0 0 0 0 0 0 0 0 0
35 48 65 65 61 58 61 65 77 74 77 77 81 94 94 90 84 84 68 55 65 23 39 39 26 23 10 3 3 0 0 0 0 0 0 0 0 0 0 0 0 0 0
48 58 68 58 58 55 68 74 71 77 90 81 81 74 90 97 97 77 65 61 61 45 35 32 29 26 19 13 10 6 10 3 0 10 0 0 0 0 0 0 0 0 0
39 52 65 58 58 65 68 77 87 84 87 81 87 90 90 90 97 81 77 68 68 61 48 39 35 26 23 16 13 10 13 6 6 0 0 0 0 0 0 0 0 0 0
42 52 58 65 61 65 61 74 81 84 84 94 90 90 90 90 90 77 77 81 71 65 61 52 45 26 19 19 19 13 10 10 3 3 0 0 0 10 0 0 0 0 0
55 55 58 68 65 71 71 65 77 81 87 94 94 90 90 90 94 87 87 81 81 74 45 52 52 32 19 19 19 13 13 10 6 6 6 6 3 10 10 10 0 0 0
71 81 90 90 81 87 87 90 84 90 94 94 94 94 94 94 97 94 97 90 81 71 68 58 55 48 35 26 26 19 13 10 6 6 6 6 6 16 16 3 6 3 0
84 94 97 97 97 97 90 90 90 90 90 90 90 90 97 100 100 97 94 90 87 58 71 71 65 61 35 23 23 23 13 19 23 23 26 10 6 6 0 0 0 0 0
74 97 97 97 97 97 97 97 94 94 97 94 90 94 97 97 94 90 90 90 87 81 74 77 68 58 26 3 0 10 16 35 32 26 29 26 10 0 0 0 0 0 0
74 84 87 90 90 90 90 87 87 87 87 87 87 84 87 87 87 77 81 84 81 81 84 74 68 65 45 3 0 0 3 13 23 42 55 16 0 0 0 0 0 0 0
77 77 74 71 71 74 71 71 71 71 71 74 74 71 71 77 81 74 74 74 77 74 77 74 71 65 52 6 0 0 0 0 0 10 16 35 23 3 3 3 0 0 0
58 65 61 68 71 61 58 52 52 52 52 52 61 55 55 61 65 65 68 71 71 71 65 68 68 68 58 16 0 0 0 0 0 0 3 6 13 3 0 0 0 3 0
52 45 45 39 45 45 42 35 35 32 29 29 35 32 29 35 42 52 48 58 61 61 58 61 58 58 55 26 0 0 0 0 3 3 6 0 0 0 0 0 0 0 0
32 29 32 32 26 23 35 32 26 26 23 23 23 23 26 23 26 32 32 32 39 42 48 45 45 48 39 19 0 0 0 0 3 0 0 0 0 0 0 0 0 0 0
29 26 26 23 19 19 19 19 16 13 10 10 13 16 16 10 6 23 26 26 23 29 32 35 29 32 32 3 0 0 0 0 0 0 0 0 0 0 0 0 0 0 0
10 6 3 3 3 6 6 6 6 0 0 0 3 3 3 10 6 10 6 13 10 6 6 6 0 0 0 0 0 0 0 0 0 0 0 0 0 0 0 0 0 0 0
0 0 0 0 0 0 0 0 0 0 0 0 0 0 0 0 3 3 3 3 3 3 6 6 0 0 0 0 0 0 0 0 0 0 0 0 0 0 0 0 0 0 0
0 0 0 0 0 0 0 0 0 0 0 0 0 0 0 0 0 0 3 0 0 0 0 0 0 0 0 0 0 0 0 0 0 0 0 0 0 0 0 0 0 0 0
0 0 0 0 0 0 0 0 0 0 0 0 0 0 0 0 0 0 0 0 0 0 0 0 0 0 0 0 0 0 0 0 0 0 0 0 0 0 0 0 0 0 0

GEFSMW_con_cape1000_096.txt.gz
Probability
32 32 29 32 42 45 32 29 32 19 16 10 3 0 0 0 0 0 0 0 0 0 0 0 0 0 0 0 0 0 0 0 0 0 0 0 0 0 0 0 0 0 0
23 32 29 35 42 42 32 32 29 19 13 6 6 0 0 0 0 0 0 0 0 0 0 0 0 0 0 0 0 0 0 0 0 0 0 0 0 0 0 0 0 0 0
29 32 35 32 45 39 42 45 29 23 10 6 3 0 0 0 0 0 0 0 0 0 0 0 0 0 0 0 0 0 0 0 0 0 0 0 0 0 0 0 0 0 0
29 35 29 35 39 39 39 29 32 23 3 3 3 3 0 0 0 0 0 0 0 0 0 0 0 0 0 0 0 0 0 0 0 0 0 0 0 0 0 0 0 0 0
23 29 35 29 29 35 32 29 29 16 3 3 3 3 0 0 0 0 0 0 0 0 0 0 0 0 0 0 0 0 0 0 0 0 0 0 0 0 0 0 0 0 0
29 29 35 32 29 32 32 39 26 13 10 3 3 0 0 0 0 0 0 0 0 0 0 0 0 0 0 0 0 0 0 0 0 0 0 0 0 0 0 0 0 0 0
29 29 29 29 26 29 29 39 29 23 10 10 3 0 0 0 0 0 0 0 0 0 0 0 0 0 0 0 0 0 0 0 0 0 0 0 0 0 0 0 0 0 0
23 29 29 32 26 26 32 35 29 19 13 13 10 6 6 3 0 0 0 0 0 0 0 0 0 0 0 0 0 0 0 0 0 0 0 0 0 0 0 0 0 0 0
23 32 29 32 26 29 39 39 26 16 23 13 13 10 6 6 6 0 0 0 0 0 0 0 0 0 0 0 0 0 0 0 0 0 0 0 0 0 0 0 0 0 0
26 32 32 32 32 32 35 39 29 26 29 19 13 13 13 10 6 6 6 3 0 0 0 0 0 0 0 0 0 0 0 0 0 0 0 0 0 0 0 0 0 0 0
16 19 29 32 29 26 32 32 29 29 29 23 19 16 16 13 10 6 6 6 3 0 0 0 0 0 0 0 0 0 0 0 0 0 0 0 0 0 0 0 0 0 0
16 19 19 29 29 29 32 35 26 29 26 26 19 19 19 16 13 13 13 10 3 0 0 0 0 0 3 3 0 0 0 0 0 0 0 0 0 0 0 0 0 0 0
10 10 16 23 26 29 32 35 29 29 26 23 19 19 19 23 23 19 16 16 6 3 0 0 0 0 0 3 3 0 0 0 0 0 0 0 0 0 0 0 0 0 0
10 13 16 19 19 26 26 26 26 32 29 26 26 23 26 23 19 19 23 16 13 6 3 3 3 3 3 3 3 3 0 0 0 0 0 0 0 0 0 0 0 0 0
6 10 13 13 13 13 16 26 23 29 29 29 26 26 23 19 16 13 16 16 13 16 0 0 0 0 0 0 0 0 0 0 0 0 0 0 0 0 0 0 0 0 0
10 6 3 3 3 6 10 13 13 16 23 23 16 19 16 19 13 13 19 23 19 16 13 3 0 0 0 0 0 0 0 0 0 0 0 0 0 0 0 0 0 0 0
10 0 3 3 3 3 6 10 10 6 10 13 10 13 13 19 16 19 10 16 13 10 10 6 10 10 0 0 0 0 0 0 0 0 0 0 0 0 0 0 0 0 0
0 3 6 6 6 6 6 6 6 6 3 3 6 13 13 13 13 13 13 6 10 10 6 6 3 3 3 0 0 0 0 0 0 0 0 0 0 0 0 0 0 0 0
3 6 3 3 3 3 3 3 6 3 3 3 3 6 13 16 16 19 16 3 3 3 6 3 3 3 3 0 0 0 0 0 0 0 0 0 0 0 0 0 0 0 0
0 0 0 0 0 0 0 0 0 0 0 3 3 6 6 6 3 3 0 0 0 0 0 0 0 0 0 0 0 0 0 0 0 0 0 0 0 0 0 0 0 0 0
0 0 0 0 0 0 0 0 0 0 0 0 0 0 0 0 0 0 0 0 0 0 0 0 0 0 0 0 0 0 0 0 0 0 0 0 0 0 0 0 0 0 0
0 0 0 0 0 0 0 0 0 0 0 0 0 0 0 0 0 0 0 0 0 0 0 0 0 0 0 0 0 0 0 0 0 0 0 0 0 0 0 0 0 0 0
0 0 0 0 0 0 0 0 0 0 0 0 0 0 0 0 0 0 0 0 0 0 0 0 0 0 0 0 0 0 0 0 0 0 0 0 0 0 0 0 0 0 0
0 0 0 0 0 0 0 0 0 0 0 0 0 0 0 0 0 0 0 0 0 0 0 0 0 0 0 0 0 0 0 0 0 0 0 0 0 0 0 0 0 0 0
0 0 0 0 0 0 0 0 0 0 0 0 0 0 0 0 0 0 0 0 0 0 0 0 0 0 0 0 0 0 0 0 0 0 0 0 0 0 0 0 0 0 0
0 0 0 0 0 0 0 0 0 0 0 0 0 0 0 0 0 0 0 0 0 0 0 0 0 0 0 0 0 0 0 0 0 0 0 0 0 0 0 0 0 0 0

GEFSMW_con_cape1000_102.txt.gz
Probability
6 13 13 16 16 6 6 6 6 6 6 3 6 0 0 0 0 0 0 0 0 0 0 0 0 0 0 0 0 0 0 0 0 0 0 0 0 0 0 0 0 0 0
10 10 10 19 16 13 13 13 6 6 6 6 3 0 0 0 0 0 0 0 0 0 0 0 0 0 0 0 0 0 0 0 0 0 0 0 0 0 0 0 0 0 0
16 13 13 19 23 10 6 10 6 6 6 3 0 0 0 0 0 0 0 0 0 0 0 0 0 0 0 0 0 0 0 0 0 0 0 0 0 0 0 0 0 0 0
13 10 13 13 19 19 6 6 6 10 6 3 0 0 0 0 0 0 0 0 0 0 0 0 0 0 0 0 0 0 0 0 0 0 0 0 0 0 0 0 0 0 0
10 13 13 6 6 19 16 13 10 10 6 3 3 0 0 0 0 0 0 0 0 0 0 0 0 0 0 0 0 0 0 0 0 0 0 0 0 0 0 0 0 0 0
10 13 10 6 6 6 10 13 10 13 6 3 3 0 0 0 0 0 0 0 0 0 0 0 0 0 0 0 0 0 0 0 0 0 0 0 0 0 0 0 0 0 0
3 10 10 10 6 10 16 13 10 10 6 3 3 3 0 0 0 0 0 0 0 0 0 0 0 0 0 0 0 0 0 0 0 0 0 0 0 0 0 0 0 0 0
3 10 10 10 10 6 10 13 10 10 10 6 3 0 0 0 0 0 0 0 0 0 0 0 0 0 0 0 0 0 0 0 0 0 0 0 0 0 0 0 0 0 0
0 3 6 10 10 6 19 16 10 10 10 10 6 3 0 0 0 0 0 0 0 0 0 0 0 0 0 0 0 0 0 0 0 0 0 0 0 0 0 0 0 0 0
3 0 3 10 10 10 13 16 13 13 10 10 6 6 6 0 0 0 0 0 0 0 0 0 0 0 0 0 0 0 0 0 0 0 0 0 0 0 0 0 0 0 0
0 0 3 6 13 13 13 16 19 16 13 10 6 6 6 3 0 0 0 0 0 0 0 0 0 0 0 0 0 0 0 0 0 0 0 0 0 0 0 0 0 0 0
3 6 6 6 16 13 13 13 16 13 10 10 6 6 6 6 3 3 3 3 3 0 0 0 0 0 0 0 0 0 0 0 0 0 0 0 0 0 0 0 0 0 0
0 6 10 10 10 13 13 16 16 16 13 10 10 10 10 10 10 3 3 3 3 0 0 0 0 0 0 0 0 0 0 0 0 0 0 0 0 0 0 0 0 0 0
0 3 3 6 10 10 10 16 16 13 6 10 10 13 10 10 6 3 3 3 3 3 0 0 0 0 0 0 0 0 0 0 0 0 0 0 0 0 0 0 0 0 0
3 0 3 3 6 10 10 10 10 10 10 13 10 10 6 6 6 3 3 0 0 3 3 0 0 0 0 0 0 0 0 0 0 0 0 0 0 0 0 0 0 0 0
6 3 3 3 3 3 6 6 6 6 10 10 6 6 6 6 6 6 3 3 3 3 3 3 6 3 0 0 0 0 0 0 0 0 0 0 0 0 0 0 0 0 0
3 3 3 3 3 3 3 3 3 10 10 3 3 6 6 6 6 6 6 3 3 3 3 3 3 6 3 0 0 0 0 0 0 0 0 0 0 0 0 0 0 0 0
0 3 3 3 3 3 3 3 3 3 3 3 3 3 3 3 3 3 3 3 3 3 3 3 3 3 0 0 0 0 0 0 0 0 0 0 0 0 0 0 0 0 0
0 0 0 3 3 3 3 3 3 3 3 3 3 3 3 3 3 3 3 3 3 3 3 0 0 0 0 0 0 0 0 0 0 0 0 0 0 0 0 0 0 0 0
0 0 0 0 0 0 3 3 3 3 3 3 0 0 0 0 0 0 0 0 0 0 0 0 0 0 0 0 0 0 0 0 0 0 0 0 0 0 0 0 0 0 0
0 0 0 0 0 0 0 0 0 0 0 0 0 0 0 0 0 0 0 0 0 0 0 0 0 0 0 0 0 0 0 0 0 0 0 0 0 0 0 0 0 0 0
0 0 0 0 0 0 0 0 0 0 0 0 0 0 0 0 0 0 0 0 0 0 0 0 0 0 0 0 0 0 0 0 0 0 0 0 0 0 0 0 0 0 0
0 0 0 0 0 0 0 0 0 0 0 0 0 0 0 0 0 0 0 0 0 0 0 0 0 0 0 0 0 0 0 0 0 0 0 0 0 0 0 0 0 0 0
0 0 0 0 0 0 0 0 0 0 0 0 0 0 0 0 0 0 0 0 0 0 0 0 0 0 0 0 0 0 0 0 0 0 0 0 0 0 0 0 0 0 0
0 0 0 0 0 0 0 0 0 0 0 0 0 0 0 0 0 0 0 0 0 0 0 0 0 0 0 0 0 0 0 0 0 0 0 0 0 0 0 0 0 0 0
0 0 0 0 0 0 0 0 0 0 0 0 0 0 0 0 0 0 0 0 0 0 0 0 0 0 0 0 0 0 0 0 0 0 0 0 0 0 0 0 0 0 0

GEFSMW_con_cape1000_108.txt.gz
Probability
65 61 58 52 52 52 55 61 77 90 90 81 68 65 68 58 45 32 26 26 13 13 10 3 10 10 6 6 0 3 3 0 0 0 3 0 0 3 3 3 6 6 6
58 65 58 52 52 55 58 68 77 81 87 84 81 81 71 52 39 26 29 16 16 6 3 3 3 6 10 13 6 6 6 0 0 0 0 0 3 3 0 3 3 0 0
55 61 58 52 48 52 48 52 71 71 81 77 81 68 68 35 29 26 23 16 10 6 3 6 3 3 3 6 10 6 6 3 0 0 0 3 0 3 0 0 0 0 0
55 61 55 52 58 45 48 58 68 74 74 74 61 52 48 35 19 26 19 16 10 10 3 3 3 3 0 3 3 3 0 3 3 0 0 0 3 0 0 0 0 0 3
42 48 45 48 52 42 48 58 65 74 68 58 77 65 42 32 26 23 29 16 3 6 6 6 3 3 3 3 3 3 0 3 0 0 0 0 0 0 0 6 6 3 3
35 42 42 52 48 45 48 48 65 71 74 68 65 68 58 48 32 32 26 16 3 3 6 6 6 6 0 3 3 0 0 3 3 3 0 0 0 0 0 0 6 6 3
35 35 42 42 48 48 45 52 58 65 65 58 55 52 61 65 61 45 26 16 3 3 16 6 10 6 10 3 3 3 0 0 0 3 3 3 0 0 0 0 3 0 3
29 39 32 39 45 48 45 45 61 65 65 61 55 65 68 58 42 48 19 29 6 3 10 23 19 10 13 0 6 0 0 0 0 0 0 3 0 0 0 0 0 3 3
29 32 35 39 35 35 42 48 58 55 55 55 65 65 65 55 48 45 39 26 32 10 13 19 23 19 19 10 10 3 3 3 0 0 0 0 0 0 0 0 0 0 0
29 26 26 32 32 32 45 45 52 61 58 58 61 52 61 58 61 48 35 35 35 16 16 19 19 23 19 19 23 10 10 6 3 3 0 0 0 0 0 0 0 0 0
35 26 29 32 29 32 42 52 55 52 52 55 61 61 58 55 52 52 42 48 55 45 45 42 29 23 23 26 35 19 10 10 10 3 0 3 0 0 0 0 0 0 0
35 29 32 32 32 35 39 45 55 45 48 52 55 61 61 65 61 48 52 52 48 55 48 48 45 29 26 39 42 29 19 23 19 19 10 10 3 10 3 3 0 0 0
48 45 39 42 42 48 55 45 48 48 48 42 45 52 45 52 48 52 58 52 52 48 39 42 45 35 35 45 45 45 32 26 19 19 16 16 16 23 23 13 0 0 0
65 55 61 52 48 45 55 65 52 48 48 45 52 52 48 48 55 52 48 48 48 52 52 52 48 42 35 35 39 35 35 35 29 23 19 23 23 23 23 23 19 16 13
58 58 55 58 58 52 55 55 58 48 48 58 58 55 55 58 48 45 42 39 39 42 45 52 42 35 26 26 29 32 26 32 29 19 19 19 13 6 10 0 13 16 16
52 55 52 52 55 55 55 58 55 71 65 65 61 58 58 52 52 52 42 42 48 55 48 45 35 32 19 3 3 3 23 26 23 29 19 10 6 0 0 0 0 0 6
42 42 45 55 52 52 45 58 55 52 45 48 42 45 45 45 35 32 35 32 35 45 42 42 35 29 13 0 0 0 6 23 23 19 23 10 6 3 6 0 0 0 0
45 42 42 45 48 45 39 48 52 45 39 39 35 42 45 32 29 29 32 32 32 32 35 23 19 26 6 0 0 0 0 10 10 10 10 10 6 3 3 3 3 3 3
42 39 42 35 42 39 39 42 39 32 32 29 29 29 29 29 26 23 13 16 23 23 23 19 13 13 3 0 0 0 3 3 3 3 0 3 3 3 0 0 3 3 6
29 26 29 29 32 35 32 26 23 23 19 16 13 13 16 16 13 16 16 16 19 13 13 10 6 6 6 0 0 0 0 3 3 3 0 0 0 0 0 0 0 3 6
19 23 16 19 19 29 29 16 16 16 16 16 13 13 13 13 13 13 13 13 10 10 3 3 3 0 0 0 0 0 0 0 0 0 0 0 0 0 0 0 0 0 0
10 10 10 10 13 13 10 6 3 6 6 10 6 3 6 6 6 6 10 6 6 3 3 0 0 0 0 0 0 0 0 0 0 0 0 0 0 0 0 0 0 0 0
3 3 3 3 3 3 3 0 0 0 0 0 0 0 0 0 0 0 3 0 0 0 0 0 0 0 0 0 0 0 0 0 0 0 0 0 0 0 0 0 0 0 0
0 0 0 0 0 0 0 0 0 0 0 0 0 0 0 0 0 0 0 0 0 0 0 0 0 0 0 0 0 0 0 0 0 0 0 0 0 0 0 0 0 0 0
0 0 0 0 0 0 0 0 0 0 0 0 0 0 0 0 0 0 0 0 0 0 0 0 0 0 0 0 0 0 0 0 0 0 0 0 0 0 0 0 0 0 0
0 0 0 0 0 0 0 0 0 0 0 0 0 0 0 0 0 0 0 0 0 0 0 0 0 0 0 0 0 0 0 0 0 0 0 0 0 0 0 0 0 0 0